Total_Precipitation_Accumulation
0.33 0.30 0.26 0.25 0.24 0.21 0.21 0.25 0.30 0.33 0.35 0.43 0.53 0.63 0.73 0.91 1.11 1.17 1.24 1.39 1.40 1.43 1.56 1.66 1.69 1.63 1.55 1.61 1.77 2.13 2.02 1.66 1.50 1.53 1.39 1.24 1.18 1.23 1.19 1.23 1.32 1.25 1.21
0.24 0.21 0.20 0.19 0.17 0.13 0.14 0.19 0.27 0.36 0.43 0.48 0.62 0.77 1.00 1.12 1.26 1.41 1.41 1.43 1.49 1.52 1.59 1.80 1.92 1.85 1.83 1.93 1.96 2.19 2.34 2.07 1.87 1.87 2.03 1.80 1.58 1.25 1.02 1.07 1.14 1.17 1.24
0.21 0.15 0.14 0.16 0.14 0.11 0.12 0.18 0.32 0.52 0.72 0.83 1.06 1.33 1.59 1.67 1.60 1.59 1.64 1.62 1.65 1.72 1.69 1.81 2.01 1.98 1.94 1.99 2.17 2.46 2.74 2.65 2.39 2.19 2.33 2.08 1.82 1.69 1.19 0.96 1.02 1.11 1.22
0.25 0.20 0.18 0.18 0.16 0.16 0.24 0.40 0.62 0.92 1.18 1.33 1.53 1.74 1.85 1.89 1.82 1.83 1.81 1.79 1.71 1.64 1.65 1.78 1.98 2.13 2.20 2.26 2.31 2.33 2.67 2.89 2.71 2.58 2.28 2.00 1.85 1.96 1.72 1.23 1.00 1.06 1.10
0.29 0.29 0.31 0.32 0.36 0.45 0.63 0.91 1.16 1.40 1.54 1.60 1.69 1.89 2.05 2.20 2.21 2.10 1.95 1.83 1.80 1.74 1.65 1.70 1.78 1.83 1.92 2.04 2.16 2.24 2.46 2.63 2.76 2.74 2.54 2.29 2.13 1.71 1.69 1.68 1.43 1.18 0.97
0.36 0.44 0.57 0.68 0.79 0.88 1.06 1.26 1.40 1.54 1.54 1.54 1.58 1.72 1.91 2.07 2.09 2.10 2.07 1.94 1.81 1.72 1.62 1.56 1.66 1.69 1.70 1.83 1.94 2.04 2.28 2.46 2.57 2.64 2.53 2.41 2.34 2.09 1.84 1.66 1.63 1.49 1.18
0.47 0.66 0.81 0.95 1.05 1.16 1.25 1.28 1.27 1.31 1.32 1.34 1.38 1.44 1.51 1.54 1.60 1.71 1.64 1.51 1.39 1.34 1.34 1.26 1.32 1.45 1.50 1.69 1.76 1.70 1.75 1.94 2.15 2.34 2.36 2.33 2.23 2.20 2.13 1.98 1.82 1.60 1.26
0.73 0.84 0.94 1.03 1.08 1.21 1.25 1.20 1.17 1.16 1.09 1.03 1.07 1.08 1.12 1.18 1.21 1.22 1.18 1.10 1.05 1.02 0.98 0.98 1.00 1.07 1.16 1.38 1.59 1.55 1.57 1.64 1.74 1.84 2.08 2.18 2.12 2.15 2.00 1.88 1.91 1.71 1.44
0.99 1.15 1.14 1.04 0.96 1.01 1.08 1.06 1.01 0.96 0.88 0.82 0.85 0.87 0.93 0.96 0.94 0.92 0.87 0.84 0.78 0.79 0.76 0.79 0.88 0.94 0.93 1.04 1.17 1.34 1.42 1.49 1.57 1.60 1.75 1.85 1.91 1.89 1.76 1.78 1.85 1.74 1.48
1.06 1.33 1.46 1.33 1.05 0.87 0.89 0.85 0.82 0.84 0.82 0.78 0.79 0.79 0.71 0.65 0.67 0.69 0.64 0.62 0.67 0.71 0.70 0.68 0.69 0.75 0.77 0.87 0.98 1.04 1.15 1.22 1.38 1.56 1.69 1.71 1.74 1.77 1.69 1.67 1.81 1.79 1.57
1.22 1.37 1.42 1.29 1.10 0.83 0.75 0.75 0.71 0.74 0.80 0.73 0.74 0.73 0.63 0.50 0.47 0.47 0.45 0.45 0.49 0.55 0.56 0.59 0.65 0.65 0.67 0.69 0.71 0.76 0.82 0.89 0.99 1.07 1.20 1.41 1.59 1.65 1.65 1.71 1.77 1.82 1.68
0.88 0.91 1.02 1.02 0.95 0.81 0.75 0.81 0.85 0.85 0.77 0.69 0.65 0.61 0.53 0.45 0.44 0.42 0.38 0.40 0.45 0.47 0.49 0.54 0.58 0.58 0.64 0.66 0.66 0.66 0.68 0.77 0.85 0.86 0.88 0.99 1.21 1.38 1.51 1.60 1.62 1.69 1.68
0.65 0.59 0.69 0.82 0.77 0.71 0.74 0.82 0.96 0.97 0.89 0.76 0.64 0.60 0.56 0.52 0.49 0.43 0.42 0.41 0.48 0.59 0.62 0.61 0.64 0.62 0.64 0.64 0.65 0.68 0.70 0.72 0.77 0.80 0.82 0.89 0.98 1.14 1.24 1.35 1.46 1.54 1.67
0.51 0.46 0.45 0.47 0.47 0.48 0.52 0.64 0.90 1.09 1.07 0.96 0.82 0.72 0.64 0.58 0.51 0.45 0.44 0.42 0.45 0.51 0.54 0.63 0.71 0.79 0.83 0.82 0.79 0.78 0.75 0.70 0.72 0.79 0.86 0.88 0.88 1.00 1.21 1.34 1.42 1.46 1.57
0.34 0.29 0.26 0.27 0.28 0.31 0.38 0.49 0.77 0.97 0.98 0.98 0.85 0.71 0.59 0.50 0.46 0.48 0.50 0.47 0.42 0.44 0.45 0.53 0.62 0.72 0.81 0.86 0.87 0.73 0.62 0.62 0.67 0.68 0.69 0.77 0.84 0.87 1.03 1.19 1.42 1.45 1.57
0.27 0.26 0.23 0.21 0.17 0.16 0.20 0.30 0.50 0.66 0.74 0.80 0.76 0.61 0.54 0.48 0.43 0.44 0.49 0.50 0.40 0.38 0.40 0.44 0.42 0.45 0.50 0.66 0.66 0.55 0.45 0.50 0.60 0.68 0.70 0.70 0.71 0.74 0.78 0.82 1.07 1.26 1.39
0.29 0.31 0.30 0.27 0.24 0.20 0.19 0.21 0.27 0.38 0.45 0.50 0.50 0.41 0.40 0.47 0.47 0.47 0.46 0.40 0.33 0.35 0.37 0.32 0.28 0.30 0.34 0.39 0.38 0.44 0.46 0.48 0.53 0.61 0.70 0.75 0.73 0.78 0.88 0.84 0.87 0.97 1.03
0.32 0.29 0.27 0.25 0.22 0.19 0.18 0.18 0.19 0.22 0.26 0.25 0.22 0.18 0.25 0.36 0.37 0.32 0.30 0.26 0.26 0.31 0.38 0.33 0.30 0.34 0.30 0.32 0.37 0.41 0.43 0.56 0.62 0.62 0.62 0.74 0.79 0.85 1.01 1.00 1.07 1.00 0.90
0.14 0.11 0.09 0.09 0.09 0.09 0.08 0.08 0.06 0.06 0.07 0.07 0.07 0.08 0.09 0.10 0.10 0.09 0.10 0.14 0.19 0.24 0.22 0.25 0.40 0.40 0.36 0.43 0.41 0.36 0.43 0.55 0.62 0.58 0.62 0.73 0.83 0.97 1.08 1.13 1.16 1.05 0.95
0.03 0.04 0.05 0.06 0.06 0.05 0.06 0.05 0.05 0.05 0.05 0.05 0.05 0.05 0.05 0.07 0.06 0.05 0.06 0.08 0.12 0.15 0.15 0.18 0.31 0.37 0.38 0.39 0.30 0.30 0.42 0.54 0.62 0.63 0.64 0.85 0.86 0.95 1.00 1.06 1.18 1.20 1.06
0.03 0.04 0.05 0.05 0.05 0.04 0.04 0.04 0.04 0.05 0.06 0.06 0.05 0.04 0.04 0.06 0.09 0.10 0.08 0.08 0.07 0.08 0.10 0.14 0.17 0.18 0.19 0.18 0.20 0.27 0.33 0.39 0.51 0.59 0.64 0.61 0.74 0.76 0.86 0.98 1.06 1.27 1.15
0.03 0.05 0.05 0.05 0.05 0.05 0.04 0.04 0.04 0.06 0.07 0.07 0.06 0.05 0.05 0.05 0.07 0.13 0.12 0.11 0.10 0.08 0.08 0.11 0.15 0.13 0.11 0.10 0.13 0.16 0.20 0.27 0.34 0.42 0.54 0.54 0.63 0.68 0.74 0.76 0.93 1.11 1.08
0.03 0.04 0.06 0.06 0.06 0.07 0.07 0.06 0.06 0.07 0.08 0.08 0.07 0.06 0.06 0.06 0.06 0.08 0.11 0.11 0.10 0.09 0.09 0.10 0.13 0.14 0.14 0.13 0.13 0.15 0.18 0.22 0.25 0.28 0.43 0.51 0.58 0.57 0.57 0.68 0.87 0.93 0.98
0.02 0.02 0.03 0.06 0.09 0.10 0.11 0.12 0.12 0.13 0.13 0.11 0.09 0.08 0.08 0.09 0.07 0.07 0.09 0.11 0.12 0.12 0.12 0.12 0.15 0.18 0.19 0.14 0.14 0.18 0.22 0.25 0.26 0.28 0.40 0.52 0.58 0.57 0.57 0.64 0.77 0.83 0.95
0.03 0.02 0.02 0.03 0.05 0.08 0.10 0.12 0.13 0.16 0.16 0.16 0.15 0.13 0.12 0.10 0.10 0.10 0.09 0.10 0.12 0.15 0.14 0.17 0.19 0.18 0.17 0.15 0.17 0.20 0.24 0.26 0.27 0.36 0.52 0.65 0.66 0.66 0.63 0.67 0.77 0.75 0.73
0.02 0.02 0.02 0.02 0.03 0.03 0.04 0.06 0.07 0.10 0.13 0.16 0.16 0.13 0.14 0.16 0.16 0.14 0.12 0.11 0.12 0.15 0.16 0.15 0.17 0.16 0.16 0.16 0.19 0.23 0.26 0.28 0.37 0.54 0.71 0.82 0.90 0.89 0.83 0.79 0.77 0.71 0.69